Weather History for Keahole Point, HI

Change the Weather History Date:

Saturday, December 8, 2012

  Actual Average Record
Temperature  
Mean Temperature 77 °F -  
Max Temperature 82 °F 80 °F 87 °F (1983)
Min Temperature 72 °F 68 °F 62 °F (1982)
Cooling Degree Days 12    
Growing Degree Days 27 (Base 50)    
Moisture  
Dew Point 63 °F    
Average Humidity 63    
Maximum Humidity 74    
Minimum Humidity 52    
Precipitation  
Precipitation 0.00 in - - ()
Sea Level Pressure  
Sea Level Pressure 29.91 in    
Wind  
Wind Speed 6 mph (South)    
Max Wind Speed 14 mph    
Max Gust Speed -    
Visibility 10 miles    
Events      
Averages and records for this station are not official NWS values.
T = Trace of Precipitation, MM = Missing Value Source: NWS Daily Summary

Daily Weather History Graph

Daily Weather History Graph

Search for Another Location

Airport:

Trip Planner

Search our weather history database for the weather conditions in past years. The results will help you decide how hot, cold, wet, or windy it might be!

Date:

Astronomy

Dec. 08, 2012 Rise Set
Actual Time 6:47 AM HST 5:45 PM HST
Civil Twilight 6:23 AM HST 6:09 PM HST
Nautical Twilight 5:55 AM HST 6:36 PM HST
Astronomical Twilight 5:28 AM HST 7:03 PM HST
Moon 1:55 AM HST (12/8) 1:54 PM HST (12/8)
Length of Visible Light 11h 46m
Length of Day
10h 58m
Waning Crescent, 26% of the Moon is Illuminated
Dec 8
Waning Crescent
Dec 12
New
Dec 19
First Quarter
Dec 28
Full
Jan 4
Last Quarter

Hourly Weather History & Observations

Time (HST) Temp. Heat Index Dew Point Humidity Pressure Visibility Wind Dir Wind Speed Gust Speed Precip Events Conditions
12:53 AM 73.9 °F - 64.0 °F 71% 29.91 in 10.0 mi Calm Calm - N/A   Clear
1:53 AM 72.0 °F - 61.0 °F 68% 29.90 in 10.0 mi NNW 8.1 mph - N/A   Clear
2:53 AM 75.0 °F - 61.0 °F 62% 29.88 in 10.0 mi North 11.5 mph - N/A   Clear
3:53 AM 75.0 °F - 61.0 °F 62% 29.89 in 10.0 mi NNE 12.7 mph - N/A   Clear
4:53 AM 73.9 °F - 61.0 °F 64% 29.89 in 10.0 mi NNE 6.9 mph - N/A   Clear
5:53 AM 72.0 °F - 59.0 °F 64% 29.89 in 10.0 mi NNE 5.8 mph - N/A   Clear
6:53 AM 72.0 °F - 59.0 °F 64% 29.91 in 10.0 mi Calm Calm - N/A   Clear
7:53 AM 75.0 °F - 57.9 °F 55% 29.94 in 10.0 mi SE 4.6 mph - N/A   Clear
8:53 AM 79.0 °F - 60.1 °F 52% 29.95 in 10.0 mi Calm Calm - N/A   Clear
9:53 AM 79.0 °F - 64.0 °F 60% 29.95 in 10.0 mi SSW 5.8 mph - N/A   Clear
10:53 AM 81.0 °F 82.5 °F 64.0 °F 56% 29.94 in 10.0 mi SW 6.9 mph - N/A   Clear
11:53 AM 82.0 °F 83.4 °F 64.0 °F 54% 29.90 in 10.0 mi SSW 10.4 mph - N/A   Clear
12:53 PM 82.0 °F 84.1 °F 66.0 °F 58% 29.88 in 10.0 mi South 10.4 mph - N/A   Clear
1:53 PM 82.9 °F 84.6 °F 64.9 °F 54% 29.85 in 10.0 mi South 12.7 mph - N/A   Clear
2:53 PM 82.0 °F 84.1 °F 66.0 °F 58% 29.85 in 10.0 mi SSW 11.5 mph - N/A   Clear
3:53 PM 81.0 °F 83.0 °F 66.0 °F 60% 29.86 in 10.0 mi South 13.8 mph - N/A   Clear
4:53 PM 80.1 °F 82.7 °F 68.0 °F 67% 29.89 in 10.0 mi South 9.2 mph - N/A   Clear
5:53 PM 78.1 °F - 66.9 °F 68% 29.90 in 10.0 mi SSW 5.8 mph - N/A   Clear
6:53 PM 77.0 °F - 68.0 °F 74% 29.91 in 10.0 mi Calm Calm - N/A   Clear
7:53 PM 77.0 °F - 66.9 °F 71% 29.93 in 10.0 mi Calm Calm - N/A   Clear
8:53 PM 75.9 °F - 66.0 °F 71% 29.95 in 10.0 mi Calm Calm - N/A   Clear
9:53 PM 73.9 °F - 64.0 °F 71% 29.96 in 10.0 mi Calm Calm - N/A   Partly Cloudy
10:53 PM 73.9 °F - 62.1 °F 66% 29.95 in 10.0 mi SE 4.6 mph - N/A   Clear
11:53 PM 73.0 °F - 62.1 °F 68% 29.94 in 10.0 mi SE 8.1 mph - N/A   Clear